EW7082 Weather Reports


Display with metric or nautical units.
time (UTC)temp
F
wind
direction
speed
MPH
gust
MPH
rain 1hr
in
rain 24hr
in
rain mn
in
humidity
%
barometer
mb
20260510065204 54 265 8.0 14.0 0.00 0.00 0.00 86 1017.1
20260510064204 54 257 6.0 12.0 0.00 0.00 0.00 85 1017.1
20260510063704 54 261 7.0 10.0 0.00 0.00 0.00 85 1017.1
20260510063204 54 253 6.0 9.0 0.00 0.00 0.00 85 1017.0
20260510062704 54 262 7.0 12.0 0.00 0.00 0.00 84 1017.1
20260510062205 54 270 9.0 12.0 0.00 0.00 0.00 84 1017.1
20260510061703 54 273 7.0 12.0 0.00 0.00 0.00 84 1017.0
20260510060205 54 262 7.0 12.0 0.00 0.00 0.00 84 1016.9
20260510055704 54 269 7.0 10.0 0.00 0.00 0.00 84 1016.9
20260510055205 54 277 6.0 10.0 0.00 0.00 0.00 84 1017.0
20260510054704 54 270 5.0 8.0 0.00 0.00 0.00 84 1017.0
20260510054203 54 268 4.0 9.0 0.00 0.00 0.00 84 1017.0
20260510053705 54 259 5.0 9.0 0.00 0.00 0.00 84 1016.9
20260510053204 54 273 6.0 9.0 0.00 0.00 0.00 84 1016.9
20260510052703 54 267 5.0 9.0 0.00 0.00 0.00 84 1016.9
20260510052204 54 261 5.0 10.0 0.00 0.00 0.00 85 1016.9
20260510051703 54 269 5.0 8.0 0.00 0.00 0.00 85 1017.0
20260510051204 54 261 5.0 7.0 0.00 0.00 0.00 85 1017.0
20260510050706 54 258 4.0 10.0 0.00 0.00 0.00 85 1017.0
20260510050205 54 257 5.0 8.0 0.00 0.00 0.00 85 1017.1
20260510045704 54 257 3.0 9.0 0.00 0.00 0.00 84 1017.0
20260510045204 54 264 5.0 12.0 0.00 0.00 0.00 85 1017.1
20260510044704 54 257 6.0 12.0 0.00 0.00 0.00 85 1017.2
20260510044205 54 266 7.0 14.0 0.00 0.00 0.00 86 1017.1
20260510043705 54 262 8.0 13.0 0.00 0.00 0.00 86 1017.2
20260510042704 54 262 8.0 14.0 0.00 0.00 0.00 87 1017.3
20260510042204 54 266 9.0 15.0 0.00 0.00 0.00 87 1017.3
20260510041703 54 269 8.0 12.0 0.00 0.00 0.00 87 1017.2
20260510040704 55 274 8.0 15.0 0.00 0.00 0.00 85 1017.2
20260510040205 56 258 7.0 12.0 0.00 0.00 0.00 82 1017.1
20260510034706 59 285 3.0 7.0 0.00 0.00 0.00 74 1016.9
20260510034204 60 295 3.0 8.0 0.00 0.00 0.00 71 1016.7
20260510033705 61 308 0.0 3.0 0.00 0.00 0.00 69 1016.7
20260510033205 62 311 1.0 2.0 0.00 0.00 0.00 68 1016.6
20260510032704 63 36 0.0 1.0 0.00 0.00 0.00 65 1016.6
20260510032206 64 36 0.0 0.0 0.00 0.00 0.00 64 1016.7
20260510031706 64 36 0.0 0.0 0.00 0.00 0.00 62 1016.7
20260510031205 65 36 0.0 0.0 0.00 0.00 0.00 62 1016.7
20260510030706 64 36 0.0 0.0 0.00 0.00 0.00 63 1016.7
20260510030205 64 36 0.0 0.0 0.00 0.00 0.00 60 1016.7
20260510025705 64 36 0.0 1.0 0.00 0.00 0.00 62 1016.7
20260510025206 64 36 0.0 0.0 0.00 0.00 0.00 63 1016.8
20260510024704 64 36 0.0 1.0 0.00 0.00 0.00 62 1016.7
20260510024204 64 36 1.0 2.0 0.00 0.00 0.00 62 1016.7
20260510023705 64 63 0.0 1.0 0.00 0.00 0.00 63 1016.8
20260510022704 64 66 2.0 3.0 0.00 0.00 0.00 61 1016.8
20260510022205 64 106 1.0 3.0 0.00 0.00 0.00 61 1016.9
20260510021704 64 70 1.0 3.0 0.00 0.00 0.00 62 1016.9
20260510021205 64 75 2.0 3.0 0.00 0.00 0.00 60 1017.0
20260510020705 64 61 2.0 3.0 0.00 0.00 0.00 60 1017.0
20260510015704 64 63 3.0 6.0 0.00 0.00 0.00 61 1017.1
20260510015204 64 85 3.0 6.0 0.00 0.00 0.00 62 1017.1
20260510014703 64 66 3.0 3.0 0.00 0.00 0.00 61 1017.2
20260510014203 64 92 2.0 6.0 0.00 0.00 0.00 60 1017.2
20260510013705 64 64 5.0 6.0 0.00 0.00 0.00 62 1017.2
20260510012704 64 16 4.0 6.0 0.00 0.00 0.00 62 1017.3
20260510012205 65 43 5.0 9.0 0.00 0.00 0.00 62 1017.5
20260510011704 64 22 3.0 5.0 0.00 0.00 0.00 62 1017.6
20260510011204 64 37 4.0 6.0 0.00 0.00 0.00 60 1017.5
20260510010704 64 60 2.0 6.0 0.00 0.00 0.00 63 1017.7
20260510010204 64 81 2.0 5.0 0.00 0.00 0.00 62 1017.8
20260510005705 64 59 3.0 6.0 0.00 0.00 0.00 66 1017.9
20260510005206 63 56 3.0 5.0 0.00 0.00 0.00 64 1018.0
20260510004704 64 65 3.0 5.0 0.00 0.00 0.00 64 1018.1
20260510004204 64 65 2.0 3.0 0.00 0.00 0.00 63 1018.2
20260510003705 64 47 1.0 3.0 0.00 0.00 0.00 64 1018.2
20260510002205 64 12 3.0 5.0 0.00 0.00 0.00 63 1018.4
20260510001703 64 1 3.0 5.0 0.00 0.00 0.00 64 1018.4
20260510001204 64 64 2.0 5.0 0.00 0.00 0.00 64 1018.5
20260510000704 64 326 1.0 5.0 0.00 0.00 0.00 65 1018.6
20260510000204 64 23 2.0 5.0 0.00 0.00 0.00 62 1018.6
20260509235206 64 16 3.0 6.0 0.00 0.00 0.00 61 1018.7
20260509234705 64 357 3.0 6.0 0.00 0.00 0.00 62 1018.7
20260509233706 64 353 5.0 8.0 0.00 0.00 0.00 64 1018.9
20260509233205 64 354 3.0 7.0 0.00 0.00 0.00 65 1018.8
20260509232704 64 32 3.0 7.0 0.00 0.00 0.00 67 1018.9
20260509232205 64 349 3.0 6.0 0.00 0.00 0.00 66 1019.2
20260509231704 64 65 2.0 5.0 0.00 0.00 0.00 66 1019.2
20260509231204 64 46 2.0 5.0 0.00 0.00 0.00 68 1019.1
20260509230706 64 48 3.0 6.0 0.00 0.00 0.00 67 1019.2
20260509230204 64 48 4.0 7.0 0.00 0.00 0.00 68 1019.4
20260509225704 64 103 3.0 6.0 0.00 0.00 0.00 66 1019.5
20260509225205 64 121 1.0 3.0 0.00 0.00 0.00 67 1019.5
20260509224704 64 41 3.0 6.0 0.00 0.00 0.00 67 1019.6
20260509224206 64 40 3.0 6.0 0.00 0.00 0.00 64 1019.7
20260509223706 64 40 1.0 7.0 0.00 0.00 0.00 70 1019.7
20260509223205 64 94 3.0 6.0 0.00 0.00 0.00 70 1019.8
20260509222205 63 43 3.0 7.0 0.00 0.00 0.00 70 1020.0
20260509221204 63 96 1.0 5.0 0.00 0.00 0.00 71 1020.2
20260509220705 63 301 2.0 3.0 0.00 0.00 0.00 74 1020.3
20260509215704 62 18 2.0 3.0 0.00 0.00 0.00 73 1020.5
20260509214704 62 341 3.0 8.0 0.00 0.00 0.00 74 1020.5
20260509214203 62 37 3.0 8.0 0.00 0.00 0.00 75 1020.5
20260509213704 62 334 3.0 8.0 0.00 0.00 0.00 75 1020.6
20260509213203 62 338 3.0 8.0 0.00 0.00 0.00 76 1020.8
20260509211704 62 315 4.0 8.0 0.00 0.00 0.00 74 1020.8
20260509210704 62 336 2.0 3.0 0.00 0.00 0.00 76 1020.8
20260509205704 61 238 1.0 7.0 0.00 0.00 0.00 76 1020.9
20260509205204 61 285 5.0 8.0 0.00 0.00 0.00 76 1021.0
20260509204703 61 303 3.0 8.0 0.00 0.00 0.00 78 1021.1
20260509204204 60 294 3.0 10.0 0.00 0.00 0.00 79 1021.3
20260509203705 59 329 7.0 12.0 0.00 0.00 0.00 76 1021.3
20260509203204 59 313 5.0 12.0 0.00 0.00 0.00 77 1021.4
20260509202704 59 312 6.0 12.0 0.00 0.00 0.00 77 1021.3
20260509202204 60 315 6.0 10.0 0.00 0.00 0.00 76 1021.2
20260509201703 60 335 6.0 10.0 0.00 0.00 0.00 76 1021.3
20260509201205 59 336 3.0 7.0 0.00 0.00 0.00 77 1021.2
20260509200705 60 337 5.0 8.0 0.00 0.00 0.00 76 1021.2
20260509200204 60 333 5.0 8.0 0.00 0.00 0.00 76 1021.2
20260509195704 60 350 5.0 6.0 0.00 0.00 0.00 77 1021.0
20260509195206 60 9 4.0 8.0 0.00 0.00 0.00 77 1021.0
20260509194705 60 300 3.0 6.0 0.00 0.00 0.00 77 1021.2
20260509193706 60 324 5.0 9.0 0.00 0.00 0.00 77 1021.4
20260509193203 60 292 4.0 7.0 0.00 0.00 0.00 77 1021.5
20260509192703 60 331 4.0 8.0 0.00 0.00 0.00 78 1021.6
20260509192205 60 338 3.0 7.0 0.00 0.00 0.00 78 1021.6
20260509191204 59 351 5.0 12.0 0.00 0.00 0.00 78 1021.6
20260509190705 59 337 5.0 8.0 0.00 0.00 0.00 79 1021.7
20260509190204 59 337 3.0 6.0 0.00 0.00 0.00 79 1021.8
20260509185704 59 313 4.0 8.0 0.00 0.00 0.00 80 1021.8
20260509185205 59 307 3.0 7.0 0.00 0.00 0.00 79 1021.8
20260509184704 59 301 5.0 9.0 0.00 0.00 0.00 80 1021.8
20260509184203 59 325 5.0 9.0 0.00 0.00 0.00 80 1021.9
20260509183705 58 289 5.0 8.0 0.00 0.00 0.00 80 1021.8
20260509183203 59 308 5.0 9.0 0.00 0.00 0.00 81 1021.8
20260509182205 59 349 3.0 5.0 0.00 0.00 0.00 80 1021.7
20260509181205 59 14 3.0 9.0 0.00 0.00 0.00 80 1021.8
20260509180706 59 292 2.0 3.0 0.00 0.00 0.00 79 1021.8
20260509180205 59 0 3.0 8.0 0.00 0.00 0.00 80 1021.9
20260509175703 59 345 3.0 8.0 0.00 0.00 0.00 81 1021.9
20260509175205 58 349 3.0 8.0 0.00 0.00 0.00 80 1021.9
20260509174703 58 11 4.0 8.0 0.00 0.00 0.00 81 1022.1
20260509174205 58 330 5.0 8.0 0.00 0.00 0.00 80 1022.1
20260509173704 58 65 5.0 8.0 0.00 0.00 0.00 80 1022.1
20260509173205 58 348 4.0 9.0 0.00 0.00 0.00 80 1022.1
20260509172704 59 0 3.0 8.0 0.00 0.00 0.00 79 1022.1
20260509172204 58 342 3.0 6.0 0.00 0.00 0.00 80 1022.1
20260509171704 58 45 3.0 10.0 0.00 0.00 0.00 80 1022.0
20260509171204 58 11 3.0 7.0 0.00 0.00 0.00 80 1022.1
20260509170203 57 337 3.0 6.0 0.00 0.00 0.00 81 1022.2
20260509165703 57 42 3.0 8.0 0.00 0.00 0.00 80 1022.2
20260509165205 57 67 5.0 6.0 0.00 0.00 0.00 80 1022.2
20260509164205 57 79 5.0 8.0 0.00 0.00 0.00 81 1022.2
20260509163705 57 74 5.0 8.0 0.00 0.00 0.00 81 1022.3
20260509163203 57 26 3.0 7.0 0.00 0.00 0.00 81 1022.4
20260509162205 57 88 4.0 8.0 0.00 0.00 0.00 80 1022.3
20260509161204 57 73 3.0 7.0 0.00 0.00 0.00 81 1022.4
20260509160705 57 21 4.0 8.0 0.00 0.00 0.00 81 1022.4
20260509160205 57 38 2.0 5.0 0.00 0.00 0.00 81 1022.5
20260509155704 57 14 2.0 3.0 0.00 0.00 0.00 82 1022.4
20260509154704 56 43 3.0 5.0 0.00 0.00 0.00 82 1022.5
20260509154205 56 301 3.0 5.0 0.00 0.00 0.00 82 1022.6
20260509152704 56 54 2.0 3.0 0.00 0.00 0.00 83 1022.7
20260509152204 56 273 1.0 3.0 0.00 0.00 0.00 83 1022.7
20260509151704 56 274 0.0 2.0 0.00 0.00 0.00 84 1022.7
20260509151203 56 67 2.0 3.0 0.00 0.00 0.00 84 1022.8
20260509150704 55 51 2.0 3.0 0.00 0.00 0.00 86 1022.7
20260509150203 55 40 0.0 0.0 0.00 0.00 0.00 88 1022.7
20260509145206 53 175 0.0 0.0 0.00 0.00 0.00 91 1022.8
20260509144704 53 180 0.0 0.0 0.00 0.00 0.00 92 1022.8
20260509144203 52 180 0.0 0.0 0.00 0.00 0.00 93 1022.9
20260509143705 52 176 1.0 2.0 0.00 0.00 0.00 94 1022.9
20260509143204 51 146 0.0 1.0 0.00 0.00 0.00 94 1023.0
20260509142704 51 146 0.0 0.0 0.00 0.00 0.00 95 1023.0
20260509142205 50 146 0.0 0.0 0.00 0.00 0.00 95 1023.0
20260509141704 50 146 0.0 0.0 0.00 0.00 0.00 95 1022.9
20260509141203 50 146 0.0 0.0 0.00 0.00 0.00 95 1023.1
20260509140206 49 146 0.0 1.0 0.00 0.00 0.00 95 1023.1
20260509135704 49 65 0.0 0.0 0.00 0.00 0.00 95 1023.0
20260509135205 49 65 1.0 2.0 0.00 0.00 0.00 95 1023.0
20260509134704 49 194 0.0 0.0 0.00 0.00 0.00 95 1023.1
20260509134204 49 194 0.0 0.0 0.00 0.00 0.00 95 1023.1
20260509133705 49 194 0.0 0.0 0.00 0.00 0.00 95 1023.0
20260509132705 49 194 0.0 0.0 0.00 0.00 0.00 94 1023.2
20260509132205 48 194 0.0 1.0 0.00 0.00 0.00 94 1023.2
20260509131704 49 194 0.0 1.0 0.00 0.00 0.00 94 1023.0
20260509131204 49 194 0.0 0.0 0.00 0.00 0.00 94 1023.0
20260509130706 49 194 0.0 0.0 0.00 0.00 0.00 94 1023.0
20260509130204 49 194 0.0 0.0 0.00 0.00 0.00 94 1023.0
20260509125703 49 194 0.0 0.0 0.00 0.00 0.00 94 1023.0
20260509124703 49 194 0.0 0.0 0.00 0.00 0.00 94 1023.0
20260509123704 49 194 0.0 0.0 0.00 0.00 0.00 94 1023.0
20260509123204 49 194 0.0 0.0 0.00 0.00 0.00 94 1023.0
20260509122704 49 194 0.0 0.0 0.00 0.00 0.00 94 1022.9
20260509122206 49 194 0.0 0.0 0.00 0.00 0.00 94 1022.9
20260509121703 49 194 0.0 0.0 0.00 0.00 0.00 94 1023.0
20260509120705 49 194 0.0 0.0 0.00 0.00 0.00 94 1023.1
20260509120204 49 194 0.0 0.0 0.00 0.00 0.00 94 1023.1
20260509115705 49 194 0.0 0.0 0.00 0.00 0.00 94 1023.2
20260509115204 49 194 0.0 0.0 0.00 0.00 0.00 94 1023.2
20260509113706 49 194 0.0 0.0 0.00 0.00 0.00 95 1023.3
20260509112705 49 194 0.0 0.0 0.00 0.00 0.00 94 1023.3
20260509112204 49 194 0.0 0.0 0.00 0.00 0.00 94 1023.3
20260509111704 48 194 0.0 0.0 0.00 0.00 0.00 94 1023.3
20260509111205 48 194 0.0 0.0 0.00 0.00 0.00 94 1023.3
20260509110705 49 194 0.0 0.0 0.00 0.00 0.00 94 1023.4
20260509110204 49 194 0.0 1.0 0.00 0.00 0.00 94 1023.4
20260509105205 49 194 0.0 0.0 0.00 0.00 0.00 94 1023.3
20260509104704 49 194 0.0 0.0 0.00 0.00 0.00 94 1023.2
20260509104204 49 194 0.0 0.0 0.00 0.00 0.00 94 1023.1
20260509103204 49 194 0.0 0.0 0.00 0.00 0.00 94 1023.1
20260509102205 49 194 0.0 0.0 0.00 0.00 0.00 95 1023.1
20260509101705 48 194 0.0 0.0 0.00 0.00 0.00 94 1023.1
20260509101205 48 194 0.0 0.0 0.00 0.00 0.00 95 1023.0
20260509100706 48 194 0.0 0.0 0.00 0.00 0.00 95 1023.0
20260509100204 48 194 0.0 1.0 0.00 0.00 0.00 95 1023.0
20260509095705 48 194 0.0 0.0 0.00 0.00 0.00 95 1023.0
20260509095205 48 194 0.0 0.0 0.00 0.00 0.00 95 1023.0
20260509094704 48 194 0.0 0.0 0.00 0.00 0.00 95 1022.9
20260509094204 48 194 0.0 0.0 0.00 0.00 0.00 95 1023.0
20260509093705 48 194 0.0 0.0 0.00 0.00 0.00 95 1023.0
20260509093204 47 194 0.0 0.0 0.00 0.00 0.00 95 1023.0
20260509092704 47 194 0.0 0.0 0.00 0.00 0.00 95 1023.0
20260509092205 47 194 0.0 0.0 0.00 0.00 0.00 95 1023.1
20260509091704 46 194 0.0 0.0 0.00 0.00 0.00 95 1023.1
20260509091205 46 194 0.0 0.0 0.00 0.00 0.00 95 1023.1
20260509090705 46 194 0.0 0.0 0.00 0.00 0.00 95 1023.1
20260509090204 46 194 0.0 1.0 0.00 0.00 0.00 95 1023.1
20260509085704 46 194 0.0 0.0 0.00 0.00 0.00 95 1023.2
20260509084204 45 194 0.0 0.0 0.00 0.00 0.00 94 1023.3
20260509083705 44 194 0.0 0.0 0.00 0.00 0.00 94 1023.3
20260509083204 44 194 0.0 0.0 0.00 0.00 0.00 93 1023.3
20260509082704 44 194 0.0 0.0 0.00 0.00 0.00 92 1023.3
20260509082205 45 194 0.0 1.0 0.00 0.00 0.00 93 1023.4
20260509081704 45 194 0.0 2.0 0.00 0.00 0.00 94 1023.4
20260509081203 45 194 0.0 2.0 0.00 0.00 0.00 94 1023.4
20260509080706 45 235 0.0 0.0 0.00 0.00 0.00 93 1023.4
20260509080204 45 235 0.0 0.0 0.00 0.00 0.00 93 1023.4
20260509075204 45 235 0.0 0.0 0.00 0.00 0.00 93 1023.4
20260509074704 45 235 0.0 0.0 0.00 0.00 0.00 93 1023.4
20260509074204 45 235 0.0 0.0 0.00 0.00 0.00 93 1023.4
20260509073704 45 235 0.0 0.0 0.00 0.00 0.00 93 1023.4
20260509073204 45 235 0.0 0.0 0.00 0.00 0.00 93 1023.3
20260509072205 45 235 0.0 0.0 0.00 0.00 0.00 93 1023.3
20260509071703 45 235 0.0 0.0 0.00 0.00 0.00 92 1023.2
20260509071204 45 235 0.0 0.0 0.00 0.00 0.00 92 1023.2
20260509070705 45 235 0.0 0.0 0.00 0.00 0.00 92 1023.1
20260509070204 44 235 0.0 0.0 0.00 0.00 0.00 92 1023.2
20260509065704 44 235 0.0 0.0 0.00 0.00 0.00 91 1023.2